User: anonymous   Login
Location: Allos
(44.2333°N, 6.6333°E)
Time: 20:16:17
(UTC+00:00)
Language:

Cosmos 2366 rocket - Orbit

View from above orbital plane
View from above orbital plane
View from above satellite
View from above satellite

Ground track
Ground track

The orbit data is extracted from the following two-line orbital elements,

1 25893U 99045B   21055.42170328  .00000112  00000-0  99357-4 0  9995
2 25893  82.9239 100.9074 0027194 285.3465  84.9369 13.76536789 80146
Epoch (UTC): 24 February 2021 10:07:15
Eccentricity: 0.0027194
inclination: 82.9239°
perigee height: 956 km
apogee height: 996 km
right ascension of ascending node: 100.9074°
argument of perigee: 285.3465°
revolutions per day: 13.76536789
mean anomaly at epoch: 84.9369°
orbit number at epoch: 8014

The dashed part of the orbit path shows where the satellite is in the earth's shadow,  

DLR